Date,TemperatureHighF,TemperatureAvgF,TemperatureLowF,DewpointHighF,DewpointAvgF,DewpointLowF,HumidityHigh,HumidityAvg,HumidityLow,PressureMaxIn,PressureMinIn,WindSpeedMaxMPH,WindSpeedAvgMPH,GustSpeedMaxMPH,PrecipitationSumIn
2014-1-1,42,41,38,39,37,34,90,87,83,29.09,28.65,17,8,22,0.07
2014-1-2,49,44,40,42,36,-100,88,77,65,29.17,28.57,37,-5,49,1.30
2014-1-3,48,44,41,39,35,-100,90,73,62,29.10,28.48,53,9,68,8.96
2014-1-4,43,33,34,36,15,-100,86,70,71,29.24,28.42,18,-132,26,0.12
2014-1-5,50,34,38,45,11,-100,88,67,19,29.25,28.72,36,-187,46,0.41
2014-1-6,50,47,43,43,40,32,82,77,69,29.01,28.50,43,21,49,1.77
2014-1-7,49,45,43,43,37,-100,86,78,74,29.42,28.90,36,-9,46,0.80
2014-1-8,45,34,36,40,13,-100,92,72,84,29.73,29.50,9,-182,12,0.02
2014-1-9,48,41,35,40,36,30,88,82,71,29.70,29.61,14,5,18,0.04
2014-1-10,47,41,35,41,36,-100,89,84,75,29.81,29.56,17,-3,21,0.25
2014-1-11,47,31,34,36,6,-100,87,62,67,30.02,29.66,16,-202,18,0.02
2014-1-12,49,32,41,43,-1,-100,86,58,76,29.82,29.34,33,-282,38,0.35
2014-1-13,46,36,34,100,25,-100,87,75,1,29.48,29.32,21,-58,30,0.15
2014-1-14,50,42,36,47,34,-100,92,84,77,29.50,29.20,23,-37,33,0.28
2014-1-15,50,47,45,48,43,-100,92,89,84,29.49,28.90,28,-6,36,0.32
2014-1-16,48,43,9,45,31,-100,91,82,91,29.66,28.77,15,-87,22,0.00
2014-1-17,49,48,48,47,45,45,92,91,91,29.23,28.89,21,4,26,0.00
2014-1-18,48,48,48,45,45,45,91,91,91,29.10,28.78,6,1,9,0.01
2014-1-19,48,41,34,45,37,29,91,86,79,29.45,28.33,16,4,20,0.28
2014-1-20,52,43,31,40,35,25,89,74,65,29.70,29.45,23,7,30,0.01
2014-1-21,48,47,43,45,40,37,91,76,69,29.52,29.06,27,11,34,0.09
2014-1-22,47,47,34,40,40,29,82,76,76,29.76,29.30,23,5,27,0.33
2014-1-23,47,47,47,40,40,40,76,76,76,29.90,29.68,22,6,33,0.34
2014-1-24,47,47,47,40,40,40,76,76,76,29.73,29.55,21,10,27,0.64
2014-1-25,47,47,47,40,40,40,76,76,76,29.87,29.59,39,16,55,2.37
2014-1-26,47,47,47,40,40,40,76,76,76,29.72,29.02,36,14,49,2.21
2014-1-27,47,47,46,40,40,40,76,76,76,29.01,28.80,18,12,45,2.59
2014-1-28,47,29,39,40,-8,-100,81,53,76,29.22,28.82,17,-327,30,0.04
2014-1-29,40,39,37,33,33,32,79,77,76,29.57,29.23,10,5,20,0.00
2014-1-30,43,37,36,37,32,32,85,84,78,29.58,29.05,15,5,17,0.02
2014-1-31,38,38,36,35,34,32,87,86,85,29.42,28.70,36,12,50,0.96